Regional Weather Roundup
Issued by NWS

Home | Current Version | Previous Version | Graphics & Text | Print | Product List | Glossary On
Versions: 1 2 3 4 5 6 7 8 9 10 11 12 13 14 15 16 17 18 19 20 21 22 23 24 25 26 27 28 29 30 31 32 33 34 35 36 37 38 39 40 41 42 43 44 45 46 47 48 49 50
000
ASUS45 KCYS 270910
RWRWY

WYOMING REGIONAL WEATHER ROUNDUP
NATIONAL WEATHER SERVICE CHEYENNE WY
300 AM MDT SUN JUL 27 2014

NOTE:  "FAIR" INDICATES FEW OR NO CLOUDS BELOW 12,000 FEET
WITH NO SIGNIFICANT WEATHER AND/OR OBSTRUCTIONS TO VISIBILITY.

WYZ001-271000-
YELLOWSTONE NATIONAL PARK

CITY           SKY/WX    TMP DP  RH WIND       PRES   REMARKS
LK YELLOWSTONE   N/A     38  30  73 CALM      30.49S
W YELLOWSTONE  NOT AVBL

$$
WYZ002>013-054>058-071-098>099-271000-
NORTHERN WYOMING

CITY           SKY/WX    TMP DP  RH WIND       PRES   REMARKS
JACKSON        CLEAR     45  34  65 N8        30.38S
CODY           NOT AVBL
GREYBULL       CLEAR     60  37  42 E3        30.24R
WORLAND        CLEAR     57  32  38 SW3       30.25R
SHERIDAN       CLEAR     52  41  66 N5        30.30R
BUFFALO        CLEAR     56  36  47 SW9       30.35R
GILLETTE       CLEAR     48  38  68 S3        30.30R
HULETT         FAIR      55  43  62 MISG      30.30
NEWCASTLE      FAIR      54  34  47 CALM      30.29

$$
WYZ014>020-022>026-101>103-271000-
CENTRAL WYOMING

CITY           SKY/WX    TMP DP  RH WIND       PRES   REMARKS
BIG PINEY      CLEAR     48  24  39 CALM      30.41R
PINEDALE       SUNNY     39  32  75 W5        30.42R
DUBOIS         FAIR      46  25  42 NW7       30.45R
LANDER         CLEAR     61  32  33 W10       30.34R
RIVERTON       CLEAR     62  32  32 E6        30.34S
CASPER         CLEAR     51  35  54 NE7       30.34S
DOUGLAS        CLEAR     58  38  47 S3        30.33R

$$
WYZ021-027>030-104>119-271000-
SOUTHERN WYOMING

CITY           SKY/WX    TMP DP  RH WIND       PRES   REMARKS
EVANSTON       CLEAR     60  32  34 NE5       30.39S
KEMMERER       SUNNY     52  28  40 NW10      30.41R
FORT BRIDGER   FAIR      64  24  22 S7        30.41S
ROCK SPRINGS   CLEAR     60  26  27 NE9       30.37S
DIXON          FAIR      53  43  68 CALM      30.36R
RAWLINS        CLEAR     60  30  32 NE10      30.37R
SARATOGA       FAIR      55  43  62 CALM      30.38R
LARAMIE        CLEAR     50  46  86 CALM      30.38S
CHEYENNE       CLEAR     58  51  78 CALM      30.34R
TORRINGTON     PTCLDY    63  43  48 E5        30.26R
PINE BLUFFS    FAIR      63  61  94 NE5       30.29R

$$



USA.gov is the U.S. government's official web portal to all federal, state and local government web resources and services.